SCP
2 2 2 2 1 1 1 1 1 1 1 1 1 1 1 0 1 1 1 1 1 1 0 0 0 0 0 0 0 1 1 1 1 0 1 1 1 0 0 0 0 0 0
2 2 2 2 1 1 1 1 1 1 1 1 1 1 1 0 1 1 1 1 1 1 1 0 0 0 0 0 0 0 0 0 0 0 0 0 0 0 0 0 0 0 0
2 2 2 2 2 1 1 1 1 1 1 1 1 1 1 1 1 1 1 1 0 1 1 0 0 0 0 0 0 0 0 0 0 0 0 0 0 0 0 0 0 0 0
2 2 2 2 2 2 1 1 1 1 1 1 1 1 1 1 1 1 1 1 0 0 1 1 1 0 0 0 0 0 0 0 0 0 0 0 0 0 0 0 0 0 0
2 2 2 2 2 2 1 1 1 1 1 1 1 1 1 1 1 1 1 1 1 1 1 1 1 1 1 0 0 0 0 0 0 0 0 0 0 0 0 0 0 0 0
2 2 2 2 2 2 1 1 1 1 1 1 1 1 1 1 1 1 1 1 1 1 1 1 1 1 1 1 0 0 0 0 0 0 0 0 0 0 1 1 1 1 1
2 2 3 3 2 2 1 1 1 1 1 1 1 1 1 1 1 1 1 1 1 1 1 1 1 1 1 1 0 0 0 0 0 0 0 0 0 1 1 1 1 1 1
2 3 3 3 3 2 2 1 1 1 1 1 1 1 1 1 1 1 1 1 1 1 1 1 1 1 1 1 0 0 0 0 0 0 0 0 0 1 1 1 1 1 1
2 2 3 3 3 2 2 1 1 1 1 1 1 1 1 1 1 1 1 1 1 1 1 1 1 1 1 1 0 0 0 0 0 0 0 0 1 1 1 1 1 1 1
2 2 2 3 2 2 2 1 1 1 1 1 1 1 1 1 1 1 1 1 1 1 1 1 1 1 1 1 0 0 0 0 0 0 0 1 1 1 1 1 1 1 1
2 2 2 2 2 2 1 2 2 2 1 1 1 1 0 0 1 1 1 1 1 1 1 1 1 1 1 0 0 0 0 0 0 0 0 1 1 1 1 1 1 1 1
2 2 2 2 2 2 1 2 2 2 1 1 1 1 1 1 0 0 1 1 1 1 1 1 1 1 0 0 0 0 0 0 0 0 0 1 1 1 1 1 1 1 1
2 2 2 2 2 1 1 2 2 2 1 1 1 1 1 1 1 1 1 1 1 1 1 1 1 0 0 0 0 1 1 0 0 0 1 1 1 1 1 1 1 1 1
2 2 2 2 2 2 2 2 2 2 1 1 1 1 1 1 1 1 1 1 1 1 1 1 1 0 0 0 0 1 1 1 0 0 1 1 1 1 1 1 1 1 1
3 2 2 2 2 2 2 2 1 1 1 1 1 2 2 2 2 1 1 1 1 1 1 1 1 0 0 0 0 1 1 1 1 1 1 1 1 1 1 1 1 1 1
3 3 3 2 2 2 2 2 2 1 1 2 2 2 3 2 2 2 1 1 1 1 1 1 1 0 0 0 0 0 1 1 0 1 1 1 1 1 2 1 1 1 1
4 3 3 2 2 1 2 2 2 1 1 2 2 3 3 3 3 2 2 2 1 1 1 1 1 1 0 0 0 0 0 0 0 0 1 1 1 1 1 1 1 1 1
4 4 3 2 2 1 1 1 1 1 1 1 2 3 4 4 3 3 2 2 2 1 1 1 1 1 0 0 0 0 0 0 0 0 1 1 1 1 1 1 1 1 1
4 4 3 2 2 1 1 1 1 1 1 1 2 2 3 4 4 4 3 3 2 2 1 1 1 1 0 0 0 0 0 0 0 0 1 1 1 1 1 1 1 1 1
3 3 3 2 2 1 1 1 0 0 1 1 1 2 2 3 4 4 4 3 3 2 2 1 1 1 0 0 0 0 0 0 1 1 1 1 1 1 0 1 1 1 1
2 2 2 2 2 1 0 0 0 0 0 1 1 1 2 3 4 4 4 4 3 2 2 1 1 1 1 0 0 0 0 0 1 1 1 1 1 1 0 0 1 1 0
1 1 2 2 1 1 0 0 0 0 0 0 1 1 1 2 3 3 4 4 3 2 2 1 1 1 0 0 0 0 0 0 0 1 1 1 1 1 0 0 0 0 0
1 1 2 2 1 0 0 0 0 0 0 0 1 1 1 2 2 3 3 3 3 2 2 1 1 1 0 0 0 0 0 0 0 0 0 0 1 1 1 0 0 0 0
1 1 2 2 1 0 0 0 0 0 0 0 0 1 1 2 2 3 3 3 3 2 2 1 1 0 0 0 0 0 0 0 0 0 0 0 1 1 1 1 1 0 0
1 1 1 1 1 0 0 0 0 0 0 0 0 0 1 1 2 2 3 3 3 2 2 1 1 0 0 0 0 0 0 0 0 0 0 0 0 1 1 1 1 1 1
1 1 1 1 1 0 0 0 0 0 0 0 0 0 1 1 2 2 2 2 2 2 1 1 0 0 0 0 0 0 0 0 0 0 0 0 0 1 1 1 1 1 1
Wind_Speed
4 3 6 8 9 10 11 11 11 11 11 11 11 10 10 11 11 11 11 11 11 10 11 12 13 13 13 13 13 13 13 13 13 13 13 12 13 13 13 13 12 10 15
3 3 5 8 9 10 10 11 11 11 11 11 11 10 10 10 10 10 10 10 10 10 11 11 12 12 12 12 12 12 12 12 12 11 10 10 11 13 13 13 12 9 14
5 4 4 8 9 10 10 10 11 11 10 10 10 10 10 10 9 9 10 9 10 10 11 11 11 11 11 11 11 11 10 10 8 8 7 5 8 12 13 13 13 14 14
5 4 4 8 9 9 10 10 10 10 10 10 10 10 10 10 10 9 9 9 10 10 10 10 10 10 10 10 10 9 8 8 7 6 4 5 6 12 12 13 13 13 13
5 4 5 8 9 9 9 9 10 10 10 10 10 10 10 10 10 10 9 9 9 9 9 9 9 9 9 9 8 8 7 7 6 5 4 5 6 11 12 12 12 13 12
6 5 5 9 9 9 9 9 9 10 10 10 10 10 10 10 10 10 10 9 9 9 9 8 9 9 8 7 7 7 6 7 5 3 4 5 5 10 11 11 11 11 11
6 6 6 9 9 9 9 9 9 10 10 10 10 10 9 10 9 9 9 9 9 9 8 8 8 8 7 7 6 6 6 6 4 3 4 5 6 10 10 10 10 10 10
7 6 6 10 10 10 9 9 9 9 10 10 10 10 10 9 9 9 9 9 8 8 8 8 8 7 6 6 5 5 5 5 4 4 4 4 7 9 9 9 8 9 9
7 6 5 5 7 9 9 9 8 9 9 10 10 9 9 9 8 8 9 8 8 8 8 8 8 7 6 5 5 5 6 6 4 3 4 4 7 8 8 8 8 8 8
7 6 5 5 5 5 4 8 8 9 9 10 10 10 9 8 7 8 7 8 8 8 7 7 7 7 5 5 4 5 5 5 3 3 2 4 7 7 6 6 6 7 7
6 5 5 5 4 4 4 5 6 7 8 8 8 9 7 3 3 4 6 8 8 8 7 6 6 6 5 4 4 4 3 1 2 2 2 5 6 6 6 6 6 6 6
5 5 5 5 4 4 3 3 2 3 3 4 3 4 3 3 3 5 6 7 7 8 7 5 5 4 3 1 2 3 1 1 2 2 2 5 5 4 5 5 5 5 5
3 4 4 4 4 4 3 2 2 1 1 2 3 3 3 3 3 3 2 3 3 4 3 3 2 2 1 1 1 1 1 1 1 1 2 4 4 3 3 4 5 4 5
3 3 4 4 4 4 3 2 2 2 2 1 2 3 3 2 2 2 2 2 2 2 2 2 2 2 2 1 1 1 1 1 1 1 1 3 2 2 2 3 4 3 4
3 3 3 4 4 3 3 2 2 2 2 2 2 2 3 2 2 2 1 1 2 2 2 2 2 2 2 2 2 1 1 1 1 1 1 2 1 1 1 2 3 3 3
2 2 2 3 3 3 3 3 2 2 2 2 2 3 3 2 2 2 2 2 2 2 2 2 3 2 2 1 2 2 1 1 1 1 1 2 2 2 1 2 2 3 3
1 1 2 2 3 3 3 3 2 2 2 2 2 2 3 3 2 2 2 2 2 2 2 2 2 2 2 2 2 2 2 1 1 0 1 1 2 2 3 3 2 2 3
0 1 1 2 3 3 3 2 2 2 2 2 2 2 2 3 3 2 2 2 2 2 2 2 2 2 2 2 2 2 2 1 1 1 1 1 2 2 3 3 3 3 3
1 1 1 2 2 3 2 2 2 2 2 2 2 2 2 2 3 2 2 2 2 2 2 3 2 2 2 2 3 2 2 2 2 2 2 2 2 2 2 3 3 3 3
2 2 2 2 2 2 1 2 2 2 2 2 1 1 1 1 2 2 2 2 2 2 2 2 3 2 2 2 3 3 3 3 2 2 2 2 2 3 3 3 3 2 3
2 2 2 2 1 1 1 1 1 1 2 2 2 2 2 1 1 1 2 2 2 2 2 3 2 2 2 2 2 3 4 3 3 2 1 1 1 1 2 2 2 2 1
2 2 2 2 1 0 0 0 1 1 1 1 1 2 3 2 1 2 1 1 2 1 2 2 3 2 2 1 1 2 2 2 1 2 1 1 1 1 1 2 2 3 2
3 3 2 2 1 1 1 1 1 1 1 2 2 2 2 3 2 1 2 1 2 1 1 2 2 2 2 2 1 1 1 1 3 2 2 1 1 1 1 2 2 2 2
3 3 3 2 2 1 1 1 0 1 1 2 2 2 3 3 2 1 1 2 2 2 2 2 2 2 2 2 2 2 2 2 1 2 2 2 2 2 2 2 2 2 2
2 3 3 2 2 2 1 1 1 1 1 1 2 2 3 3 2 2 1 1 1 2 2 2 2 3 2 2 2 2 3 3 2 2 4 3 3 2 1 2 2 2 2
2 3 3 3 2 2 1 1 1 1 1 2 2 2 2 2 2 3 2 1 2 2 2 2 2 3 3 3 3 2 2 3 2 2 3 4 4 3 3 2 2 2 2
Wind_Direction
44 35 16 34 39 40 41 45 45 46 49 51 53 52 52 55 58 57 56 57 56 57 62 64 68 67 68 69 68 70 71 72 74 72 68 70 74 77 77 74 72 75 76
57 57 37 40 42 44 45 46 44 45 48 50 54 54 54 54 58 59 57 56 55 55 59 63 69 68 68 68 68 69 71 74 76 74 71 69 74 77 76 71 74 79 79
60 69 60 42 46 47 48 47 47 44 46 49 52 54 54 55 57 60 58 55 58 58 59 63 68 68 67 67 67 66 65 70 72 72 68 76 82 82 79 77 80 81 81
64 76 68 51 51 50 49 48 48 46 46 49 51 53 53 55 57 59 59 56 57 58 60 63 68 71 69 66 65 63 60 58 59 58 59 68 76 85 83 82 83 82 82
65 76 68 57 56 54 50 49 48 46 46 47 49 52 53 56 56 57 59 57 59 57 59 62 67 70 71 68 64 60 52 46 44 51 63 70 72 83 83 82 83 83 81
60 63 67 56 56 53 50 49 49 48 47 47 48 50 53 54 56 55 54 53 55 57 59 63 64 67 68 67 64 55 41 31 28 48 62 76 78 83 83 83 81 82 83
55 55 55 47 49 51 49 46 48 49 48 48 48 49 51 53 54 55 53 52 53 52 54 57 60 62 63 64 61 48 35 20 30 52 64 73 83 88 86 87 87 84 84
55 55 52 37 40 41 42 43 46 47 46 47 47 47 48 49 52 53 52 50 52 48 49 54 56 59 60 61 52 34 22 14 46 58 75 77 91 92 90 86 90 90 86
56 54 47 39 35 31 33 34 42 46 45 45 45 43 42 43 45 50 47 46 47 49 48 51 52 52 52 52 39 20 13 11 25 43 74 80 95 96 94 90 88 92 91
55 49 42 34 32 23 21 32 36 43 43 44 44 38 37 38 40 44 40 39 43 45 46 48 48 47 44 38 24 6 358 4 36 43 57 82 91 93 97 97 94 91 95
50 41 37 29 26 19 18 34 38 43 41 46 46 38 36 39 43 42 36 36 38 40 42 44 44 47 41 21 357 348 349 17 43 54 55 80 92 93 97 98 98 97 94
46 37 31 24 20 19 21 32 38 51 51 50 52 41 21 24 28 39 30 34 34 35 37 36 35 48 35 347 319 319 350 40 63 60 70 82 91 97 100 105 103 101 101
64 44 29 20 19 22 19 18 23 37 42 52 40 29 19 30 38 40 29 29 29 33 30 14 8 342 347 344 331 354 351 40 68 63 75 87 90 96 98 113 112 110 108
58 45 29 22 18 20 17 10 26 24 26 38 21 30 30 29 30 27 20 7 4 11 6 343 322 339 343 335 334 350 12 62 77 84 98 94 87 104 112 119 125 124 125
45 38 30 28 18 13 15 11 26 20 24 16 31 30 28 24 22 12 5 6 358 5 354 329 325 333 325 334 334 334 15 80 113 110 103 124 127 123 143 139 153 154 151
31 41 28 33 22 11 13 12 16 15 18 18 31 27 28 21 14 4 354 1 4 354 334 320 328 330 322 326 323 333 338 4 84 112 145 158 159 172 181 185 187 182 177
18 50 27 29 29 19 15 13 18 16 18 14 12 27 29 21 12 5 349 357 354 340 333 327 336 339 341 340 326 323 320 340 353 322 184 171 177 195 198 200 209 209 200
186 113 65 29 29 20 5 10 21 18 17 5 1 21 24 13 5 6 358 346 344 342 339 332 347 343 331 328 319 311 305 299 290 280 268 216 186 189 198 198 209 223 218
190 163 106 70 43 17 357 18 30 19 22 8 7 13 11 6 5 7 349 339 344 344 337 331 342 327 319 326 322 315 303 276 262 259 257 239 203 186 181 190 201 222 229
194 166 126 87 53 16 6 32 27 23 8 2 2 359 358 5 8 7 345 339 343 339 335 335 328 327 321 310 317 318 300 271 252 241 243 239 212 196 184 182 187 214 224
202 176 136 108 68 27 27 33 15 358 341 349 354 355 350 356 359 8 349 339 340 333 326 326 324 317 323 327 332 323 301 266 240 234 233 240 230 213 185 182 184 182 206
207 176 142 119 94 29 66 25 269 284 296 323 341 355 349 336 345 341 345 326 327 322 321 325 336 320 312 325 328 317 308 301 299 289 263 236 224 220 213 202 190 183 185
203 178 158 143 156 213 91 69 348 352 343 355 355 344 336 329 325 327 321 317 313 318 299 313 312 309 297 296 305 282 283 270 318 273 256 257 274 268 251 231 201 192 185
195 168 160 155 176 180 117 97 331 328 310 311 314 311 313 310 319 292 287 300 305 298 292 299 312 307 283 277 284 280 276 287 268 293 283 277 269 261 255 259 228 203 192
184 162 165 168 180 168 156 178 212 272 295 303 309 307 310 315 315 297 269 272 279 288 293 295 306 304 285 273 274 284 288 288 259 256 272 279 288 274 276 269 240 216 201
195 162 166 178 176 176 190 212 216 236 266 281 291 292 301 306 305 300 276 262 263 266 274 281 280 285 285 278 272 270 272 273 259 258 260 265 272 278 274 265 253 227 207